Private Wetterstation Sandau
Wetterdaten: Mittwoch, 27.02.2013
Datum Zeit Temp. A. Feuchte A. Luftdruck Regen Wind Richtung Richtung Taupunkt Windchill
27.02.2013 00:01 0,9 C 91 % 1034,4 hPa 0,0 l/m 3,6 km/h (1 Bft) NO 45 -0,4 C 0,9 C
27.02.2013 00:06 0,9 C 91 % 1034,4 hPa 0,0 l/m 6,1 km/h (2 Bft) NO 45 -0,4 C -1,0 C
27.02.2013 00:11 0,9 C 91 % 1034,4 hPa 0,0 l/m 11,9 km/h (2 Bft) O-NO 67 -0,4 C -2,7 C
27.02.2013 00:16 0,9 C 91 % 1034,2 hPa 0,0 l/m 3,6 km/h (1 Bft) NO 45 -0,4 C 0,9 C
27.02.2013 00:21 0,9 C 91 % 1034,3 hPa 0,0 l/m 3,6 km/h (1 Bft) O-NO 67 -0,4 C 0,9 C
27.02.2013 00:26 0,9 C 91 % 1034,2 hPa 0,0 l/m 0,0 km/h (0 Bft) NO 45 -0,4 C 0,9 C
27.02.2013 00:31 0,9 C 91 % 1034,3 hPa 0,0 l/m 1,1 km/h (1 Bft) NO 45 -0,4 C 0,9 C
27.02.2013 00:36 0,9 C 91 % 1034,4 hPa 0,0 l/m 1,8 km/h (1 Bft) NO 45 -0,4 C 0,9 C
27.02.2013 00:41 0,9 C 91 % 1034,2 hPa 0,0 l/m 1,8 km/h (1 Bft) N-NO 22 -0,4 C 0,9 C
27.02.2013 00:46 0,9 C 91 % 1034,3 hPa 0,0 l/m 0,0 km/h (0 Bft) O-NO 67 -0,4 C 0,9 C
27.02.2013 00:51 0,9 C 91 % 1034,4 hPa 0,0 l/m 0,0 km/h (0 Bft) NO 45 -0,4 C 0,9 C
27.02.2013 00:56 0,9 C 91 % 1034,4 hPa 0,0 l/m 0,0 km/h (0 Bft) N-NO 22 -0,4 C 0,9 C
27.02.2013 01:01 0,9 C 91 % 1034,5 hPa 0,0 l/m 1,4 km/h (1 Bft) NO 45 -0,4 C 0,9 C
27.02.2013 01:06 0,9 C 91 % 1034,5 hPa 0,0 l/m 5,8 km/h (2 Bft) O-NO 67 -0,4 C -0,9 C
27.02.2013 01:11 0,9 C 91 % 1034,4 hPa 0,0 l/m 6,1 km/h (2 Bft) NO 45 -0,4 C -1,0 C
27.02.2013 01:16 0,9 C 91 % 1034,4 hPa 0,0 l/m 4,7 km/h (1 Bft) O-NO 67 -0,4 C -0,4 C
27.02.2013 01:21 0,9 C 91 % 1034,5 hPa 0,0 l/m 2,9 km/h (1 Bft) NO 45 -0,4 C 0,9 C
27.02.2013 01:26 0,9 C 91 % 1034,5 hPa 0,0 l/m 0,0 km/h (0 Bft) N-NO 22 -0,4 C 0,9 C
27.02.2013 01:31 0,9 C 91 % 1034,4 hPa 0,0 l/m 4,7 km/h (1 Bft) O-NO 67 -0,4 C -0,4 C
27.02.2013 01:36 0,9 C 91 % 1034,5 hPa 0,0 l/m 3,6 km/h (1 Bft) NO 45 -0,4 C 0,9 C
27.02.2013 01:41 0,9 C 91 % 1034,4 hPa 0,0 l/m 2,2 km/h (1 Bft) NO 45 -0,4 C 0,9 C
27.02.2013 01:46 0,9 C 91 % 1034,3 hPa 0,0 l/m 3,2 km/h (1 Bft) NO 45 -0,4 C 0,9 C
27.02.2013 01:51 0,9 C 91 % 1034,4 hPa 0,0 l/m 2,5 km/h (1 Bft) NO 45 -0,4 C 0,9 C
27.02.2013 01:56 0,9 C 91 % 1034,5 hPa 0,0 l/m 3,2 km/h (1 Bft) NO 45 -0,4 C 0,9 C
27.02.2013 02:01 0,9 C 91 % 1034,5 hPa 0,0 l/m 5,0 km/h (1 Bft) NO 45 -0,4 C -0,6 C
27.02.2013 02:06 0,9 C 91 % 1034,4 hPa 0,0 l/m 3,2 km/h (1 Bft) NO 45 -0,4 C 0,9 C
27.02.2013 02:11 0,9 C 91 % 1034,5 hPa 0,0 l/m 0,0 km/h (0 Bft) NO 45 -0,4 C 0,9 C
27.02.2013 02:16 0,9 C 92 % 1034,6 hPa 0,0 l/m 2,5 km/h (1 Bft) O-NO 67 -0,2 C 0,9 C
27.02.2013 02:21 0,9 C 92 % 1034,6 hPa 0,0 l/m 5,0 km/h (1 Bft) O-NO 67 -0,2 C -0,6 C
27.02.2013 02:26 0,8 C 92 % 1034,3 hPa 0,0 l/m 4,0 km/h (1 Bft) NO 45 -0,3 C 0,8 C
27.02.2013 02:31 0,8 C 92 % 1034,3 hPa 0,0 l/m 2,9 km/h (1 Bft) O-NO 67 -0,3 C 0,8 C
27.02.2013 02:36 0,8 C 92 % 1034,4 hPa 0,0 l/m 2,5 km/h (1 Bft) N-NO 22 -0,3 C 0,8 C
27.02.2013 02:41 0,8 C 92 % 1034,3 hPa 0,0 l/m 3,6 km/h (1 Bft) NO 45 -0,3 C 0,8 C
27.02.2013 02:46 0,8 C 92 % 1034,2 hPa 0,0 l/m 2,9 km/h (1 Bft) NO 45 -0,3 C 0,8 C
27.02.2013 02:51 0,8 C 92 % 1034,2 hPa 0,0 l/m 1,4 km/h (1 Bft) NO 45 -0,3 C 0,8 C
27.02.2013 02:56 0,8 C 92 % 1034,3 hPa 0,0 l/m 0,0 km/h (0 Bft) NO 45 -0,3 C 0,8 C
27.02.2013 03:01 0,8 C 92 % 1034,3 hPa 0,0 l/m 0,0 km/h (0 Bft) NO 45 -0,3 C 0,8 C
27.02.2013 03:06 0,8 C 92 % 1034,2 hPa 0,0 l/m 0,0 km/h (0 Bft) NO 45 -0,3 C 0,8 C
27.02.2013 03:11 0,8 C 92 % 1034,0 hPa 0,0 l/m 0,0 km/h (0 Bft) NO 45 -0,3 C 0,8 C
27.02.2013 03:16 0,8 C 92 % 1033,9 hPa 0,0 l/m 1,4 km/h (1 Bft) N-NO 22 -0,3 C 0,8 C
27.02.2013 03:21 0,8 C 92 % 1034,0 hPa 0,0 l/m 0,0 km/h (0 Bft) N-NO 22 -0,3 C 0,8 C
27.02.2013 03:26 0,8 C 92 % 1034,0 hPa 0,0 l/m 2,2 km/h (1 Bft) N-NO 22 -0,3 C 0,8 C
27.02.2013 03:31 0,8 C 92 % 1034,0 hPa 0,0 l/m 1,8 km/h (1 Bft) NO 45 -0,3 C 0,8 C
27.02.2013 03:36 0,8 C 92 % 1034,0 hPa 0,0 l/m 0,0 km/h (0 Bft) N-NO 22 -0,3 C 0,8 C
27.02.2013 03:41 0,8 C 92 % 1034,0 hPa 0,0 l/m 0,0 km/h (0 Bft) O-NO 67 -0,3 C 0,8 C
27.02.2013 03:46 0,8 C 92 % 1034,1 hPa 0,0 l/m 0,0 km/h (0 Bft) NO 45 -0,3 C 0,8 C
27.02.2013 03:51 0,8 C 92 % 1034,2 hPa 0,0 l/m 4,0 km/h (1 Bft) N-NO 22 -0,3 C 0,8 C
27.02.2013 03:56 0,8 C 92 % 1034,1 hPa 0,0 l/m 4,0 km/h (1 Bft) O-NO 67 -0,3 C 0,8 C
27.02.2013 04:01 0,8 C 92 % 1034,0 hPa 0,0 l/m 1,1 km/h (1 Bft) N-NO 22 -0,3 C 0,8 C
27.02.2013 04:06 0,8 C 92 % 1034,0 hPa 0,0 l/m 2,2 km/h (1 Bft) N-NO 22 -0,3 C 0,8 C
27.02.2013 04:11 0,8 C 92 % 1033,9 hPa 0,5 l/m 1,4 km/h (1 Bft) NO 45 -0,3 C 0,8 C
27.02.2013 04:16 0,8 C 92 % 1033,9 hPa 0,0 l/m 0,0 km/h (0 Bft) NO 45 -0,3 C 0,8 C
27.02.2013 04:21 0,8 C 92 % 1033,9 hPa 0,0 l/m 3,2 km/h (1 Bft) NO 45 -0,3 C 0,8 C
27.02.2013 04:26 0,8 C 92 % 1034,0 hPa 0,0 l/m 2,5 km/h (1 Bft) O-NO 67 -0,3 C 0,8 C
27.02.2013 04:31 0,8 C 92 % 1034,0 hPa 0,0 l/m 1,8 km/h (1 Bft) O-NO 67 -0,3 C 0,8 C
27.02.2013 04:36 0,8 C 92 % 1034,1 hPa 0,0 l/m 3,2 km/h (1 Bft) O 90 -0,3 C 0,8 C
27.02.2013 04:41 0,8 C 92 % 1033,9 hPa 0,0 l/m 5,0 km/h (1 Bft) N 360 -0,3 C -0,7 C
27.02.2013 04:46 0,8 C 92 % 1033,8 hPa 0,0 l/m 3,2 km/h (1 Bft) NO 45 -0,3 C 0,8 C
27.02.2013 04:51 0,9 C 92 % 1033,9 hPa 0,0 l/m 4,3 km/h (1 Bft) N-NO 22 -0,2 C 0,9 C
27.02.2013 04:56 0,9 C 92 % 1034,0 hPa 0,0 l/m 0,0 km/h (0 Bft) NO 45 -0,2 C 0,9 C
27.02.2013 05:01 0,8 C 92 % 1034,0 hPa 0,0 l/m 2,5 km/h (1 Bft) NO 45 -0,3 C 0,8 C
27.02.2013 05:06 0,8 C 92 % 1033,9 hPa 0,0 l/m 0,0 km/h (0 Bft) NO 45 -0,3 C 0,8 C
27.02.2013 05:11 0,8 C 92 % 1034,0 hPa 0,0 l/m 1,4 km/h (1 Bft) NO 45 -0,3 C 0,8 C
27.02.2013 05:16 0,9 C 92 % 1034,0 hPa 0,0 l/m 4,7 km/h (1 Bft) NO 45 -0,2 C -0,4 C
27.02.2013 05:21 0,9 C 92 % 1033,9 hPa 0,0 l/m 1,4 km/h (1 Bft) N 360 -0,2 C 0,9 C
27.02.2013 05:26 0,9 C 92 % 1034,0 hPa 0,0 l/m 0,0 km/h (0 Bft) NO 45 -0,2 C 0,9 C
27.02.2013 05:31 0,9 C 92 % 1034,0 hPa 0,0 l/m 4,3 km/h (1 Bft) O 90 -0,2 C 0,9 C
27.02.2013 05:36 0,9 C 92 % 1033,9 hPa 0,0 l/m 3,6 km/h (1 Bft) O-NO 67 -0,2 C 0,9 C
27.02.2013 05:41 0,9 C 92 % 1033,9 hPa 0,0 l/m 3,6 km/h (1 Bft) N-NO 22 -0,2 C 0,9 C
27.02.2013 05:46 0,9 C 92 % 1033,8 hPa 0,0 l/m 3,2 km/h (1 Bft) N-NO 22 -0,2 C 0,9 C
27.02.2013 05:51 0,9 C 92 % 1033,9 hPa 0,0 l/m 2,5 km/h (1 Bft) O-NO 67 -0,2 C 0,9 C
27.02.2013 05:56 0,9 C 92 % 1033,9 hPa 0,0 l/m 6,1 km/h (2 Bft) NO 45 -0,2 C -1,0 C
27.02.2013 06:01 0,9 C 92 % 1033,9 hPa 0,0 l/m 1,8 km/h (1 Bft) N 360 -0,2 C 0,9 C
27.02.2013 06:06 0,9 C 92 % 1033,8 hPa 0,0 l/m 2,2 km/h (1 Bft) O-NO 67 -0,2 C 0,9 C
27.02.2013 06:11 0,9 C 92 % 1033,8 hPa 0,0 l/m 2,9 km/h (1 Bft) N-NO 22 -0,2 C 0,9 C
27.02.2013 06:16 0,9 C 91 % 1033,7 hPa 0,0 l/m 4,3 km/h (1 Bft) NO 45 -0,4 C 0,9 C
27.02.2013 06:21 0,9 C 91 % 1033,6 hPa 0,0 l/m 1,1 km/h (1 Bft) NO 45 -0,4 C 0,9 C
27.02.2013 06:26 0,9 C 91 % 1033,7 hPa 0,0 l/m 4,0 km/h (1 Bft) O-NO 67 -0,4 C 0,9 C
27.02.2013 06:31 0,9 C 91 % 1033,8 hPa 0,0 l/m 1,4 km/h (1 Bft) O-NO 67 -0,4 C 0,9 C
27.02.2013 06:36 0,9 C 91 % 1033,7 hPa 0,0 l/m 5,0 km/h (1 Bft) NO 45 -0,4 C -0,6 C
27.02.2013 06:41 0,9 C 91 % 1033,7 hPa 0,0 l/m 1,8 km/h (1 Bft) O-NO 67 -0,4 C 0,9 C
27.02.2013 06:46 0,9 C 91 % 1033,7 hPa 0,0 l/m 1,8 km/h (1 Bft) O-NO 67 -0,4 C 0,9 C
27.02.2013 06:51 0,9 C 91 % 1033,7 hPa 0,0 l/m 2,5 km/h (1 Bft) NO 45 -0,4 C 0,9 C
27.02.2013 06:56 0,9 C 91 % 1033,8 hPa 0,0 l/m 4,7 km/h (1 Bft) NO 45 -0,4 C -0,4 C
27.02.2013 07:01 0,9 C 91 % 1033,8 hPa 0,0 l/m 3,6 km/h (1 Bft) NO 45 -0,4 C 0,9 C
27.02.2013 07:06 0,9 C 91 % 1033,9 hPa 0,0 l/m 2,2 km/h (1 Bft) O-NO 67 -0,4 C 0,9 C
27.02.2013 07:11 0,9 C 91 % 1033,9 hPa 0,0 l/m 3,2 km/h (1 Bft) O 90 -0,4 C 0,9 C
27.02.2013 07:16 0,9 C 91 % 1033,9 hPa 0,0 l/m 3,2 km/h (1 Bft) O-NO 67 -0,4 C 0,9 C
27.02.2013 07:21 0,9 C 91 % 1033,9 hPa 0,0 l/m 2,9 km/h (1 Bft) N-NO 22 -0,4 C 0,9 C
27.02.2013 07:26 0,9 C 91 % 1034,0 hPa 0,0 l/m 6,1 km/h (2 Bft) O 90 -0,4 C -1,0 C
27.02.2013 07:31 0,9 C 91 % 1034,0 hPa 0,0 l/m 3,2 km/h (1 Bft) N-NO 22 -0,4 C 0,9 C
27.02.2013 07:36 0,9 C 91 % 1034,0 hPa 0,0 l/m 1,8 km/h (1 Bft) N-NW 337 -0,4 C 0,9 C
27.02.2013 07:41 0,9 C 91 % 1034,2 hPa 0,0 l/m 4,3 km/h (1 Bft) O 90 -0,4 C 0,9 C
27.02.2013 07:46 0,9 C 91 % 1034,3 hPa 0,0 l/m 2,2 km/h (1 Bft) N-NO 22 -0,4 C 0,9 C
27.02.2013 07:51 0,9 C 91 % 1034,2 hPa 0,0 l/m 3,6 km/h (1 Bft) O-NO 67 -0,4 C 0,9 C
27.02.2013 07:56 0,9 C 91 % 1034,3 hPa 0,0 l/m 2,5 km/h (1 Bft) NO 45 -0,4 C 0,9 C
27.02.2013 08:01 0,9 C 91 % 1034,3 hPa 0,0 l/m 3,6 km/h (1 Bft) O-NO 67 -0,4 C 0,9 C
27.02.2013 08:06 0,9 C 91 % 1034,3 hPa 0,0 l/m 2,9 km/h (1 Bft) NO 45 -0,4 C 0,9 C
27.02.2013 08:11 1,0 C 91 % 1034,3 hPa 0,0 l/m 0,0 km/h (0 Bft) O-NO 67 -0,3 C 1,0 C
27.02.2013 08:16 1,0 C 91 % 1034,2 hPa 0,0 l/m 1,4 km/h (1 Bft) NO 45 -0,3 C 1,0 C
27.02.2013 08:21 1,0 C 91 % 1034,4 hPa 0,0 l/m 1,4 km/h (1 Bft) NO 45 -0,3 C 1,0 C
27.02.2013 08:26 1,0 C 91 % 1034,3 hPa 0,0 l/m 2,2 km/h (1 Bft) NO 45 -0,3 C 1,0 C
27.02.2013 08:31 1,1 C 91 % 1034,4 hPa 0,0 l/m 2,9 km/h (1 Bft) NO 45 -0,2 C 1,1 C
27.02.2013 08:36 1,1 C 91 % 1034,3 hPa 0,0 l/m 0,0 km/h (0 Bft) NO 45 -0,2 C 1,1 C
27.02.2013 08:41 1,1 C 91 % 1034,4 hPa 0,0 l/m 3,2 km/h (1 Bft) N-NO 22 -0,2 C 1,1 C
27.02.2013 08:46 1,1 C 91 % 1034,4 hPa 0,0 l/m 3,2 km/h (1 Bft) O-NO 67 -0,2 C 1,1 C
27.02.2013 08:51 1,1 C 91 % 1034,4 hPa 0,0 l/m 0,0 km/h (0 Bft) O-NO 67 -0,2 C 1,1 C
27.02.2013 08:56 1,2 C 91 % 1034,4 hPa 0,0 l/m 3,6 km/h (1 Bft) O-NO 67 -0,1 C 1,2 C
27.02.2013 09:01 1,3 C 91 % 1034,4 hPa 0,0 l/m 0,0 km/h (0 Bft) O-NO 67 -0,0 C 1,3 C
27.02.2013 09:06 1,3 C 91 % 1034,4 hPa 0,0 l/m 0,0 km/h (0 Bft) NO 45 -0,0 C 1,3 C
27.02.2013 09:11 1,3 C 91 % 1034,5 hPa 0,0 l/m 2,9 km/h (1 Bft) O-NO 67 -0,0 C 1,3 C
27.02.2013 09:16 1,3 C 91 % 1034,4 hPa 0,0 l/m 3,2 km/h (1 Bft) NO 45 -0,0 C 1,3 C
27.02.2013 09:21 1,3 C 91 % 1034,4 hPa 0,0 l/m 0,0 km/h (0 Bft) NO 45 -0,0 C 1,3 C
27.02.2013 09:26 1,3 C 91 % 1034,4 hPa 0,0 l/m 2,5 km/h (1 Bft) O-NO 67 -0,0 C 1,3 C
27.02.2013 09:31 1,3 C 91 % 1034,4 hPa 0,0 l/m 0,0 km/h (0 Bft) O-NO 67 -0,0 C 1,3 C
27.02.2013 09:36 1,3 C 91 % 1034,4 hPa 0,0 l/m 1,1 km/h (1 Bft) O-NO 67 -0,0 C 1,3 C
27.02.2013 09:41 1,3 C 91 % 1034,4 hPa 0,0 l/m 4,0 km/h (1 Bft) O-NO 67 -0,0 C 1,3 C
27.02.2013 09:46 1,3 C 91 % 1034,4 hPa 0,0 l/m 3,6 km/h (1 Bft) N-NO 22 -0,0 C 1,3 C
27.02.2013 09:51 1,3 C 91 % 1034,4 hPa 0,0 l/m 5,0 km/h (1 Bft) NO 45 -0,0 C -0,1 C
27.02.2013 09:56 1,3 C 91 % 1034,3 hPa 0,0 l/m 0,0 km/h (0 Bft) NO 45 -0,0 C 1,3 C
27.02.2013 10:01 1,4 C 91 % 1034,4 hPa 0,0 l/m 1,8 km/h (1 Bft) NO 45 0,1 C 1,4 C
27.02.2013 10:06 1,4 C 91 % 1034,5 hPa 0,0 l/m 0,0 km/h (0 Bft) NO 45 0,1 C 1,4 C
27.02.2013 10:11 1,5 C 91 % 1034,4 hPa 0,0 l/m 1,1 km/h (1 Bft) NO 45 0,2 C 1,5 C
27.02.2013 10:16 1,5 C 91 % 1034,4 hPa 0,0 l/m 3,2 km/h (1 Bft) O-NO 67 0,2 C 1,5 C
27.02.2013 10:21 1,6 C 91 % 1034,4 hPa 0,0 l/m 4,3 km/h (1 Bft) O-NO 67 0,3 C 1,6 C
27.02.2013 10:26 1,6 C 91 % 1034,5 hPa 0,0 l/m 2,2 km/h (1 Bft) O-NO 67 0,3 C 1,6 C
27.02.2013 10:31 1,6 C 91 % 1034,4 hPa 0,0 l/m 2,2 km/h (1 Bft) N-NO 22 0,3 C 1,6 C
27.02.2013 10:36 1,6 C 90 % 1034,3 hPa 0,0 l/m 5,0 km/h (1 Bft) O-NO 67 0,1 C 0,2 C
27.02.2013 10:41 1,6 C 90 % 1034,7 hPa 0,0 l/m 1,8 km/h (1 Bft) O 90 0,1 C 1,6 C
27.02.2013 10:46 1,8 C 90 % 1034,5 hPa 0,0 l/m 0,0 km/h (0 Bft) O-SO 112 0,3 C 1,8 C
27.02.2013 10:51 1,8 C 90 % 1034,5 hPa 0,0 l/m 7,6 km/h (2 Bft) NO 45 0,3 C -0,5 C
27.02.2013 10:56 1,8 C 90 % 1034,5 hPa 0,0 l/m 2,9 km/h (1 Bft) NO 45 0,3 C 1,8 C
27.02.2013 11:01 1,8 C 90 % 1034,5 hPa 0,0 l/m 2,2 km/h (1 Bft) NO 45 0,3 C 1,8 C
27.02.2013 11:06 1,8 C 90 % 1034,5 hPa 0,0 l/m 2,2 km/h (1 Bft) O-NO 67 0,3 C 1,8 C
27.02.2013 11:11 1,8 C 90 % 1034,6 hPa 0,0 l/m 0,0 km/h (0 Bft) NO 45 0,3 C 1,8 C
27.02.2013 11:16 1,8 C 90 % 1034,4 hPa 0,0 l/m 3,2 km/h (1 Bft) NO 45 0,3 C 1,8 C
27.02.2013 11:21 1,8 C 90 % 1034,3 hPa 0,0 l/m 2,2 km/h (1 Bft) NO 45 0,3 C 1,8 C
27.02.2013 11:26 1,8 C 90 % 1034,3 hPa 0,0 l/m 6,5 km/h (2 Bft) O-NO 67 0,3 C -0,1 C
27.02.2013 11:31 1,8 C 90 % 1034,4 hPa 0,0 l/m 4,7 km/h (1 Bft) NO 45 0,3 C 0,6 C
27.02.2013 11:36 1,9 C 90 % 1034,2 hPa 0,0 l/m 2,2 km/h (1 Bft) O-SO 112 0,4 C 1,9 C
27.02.2013 11:41 1,9 C 90 % 1034,4 hPa 0,0 l/m 4,7 km/h (1 Bft) O-SO 112 0,4 C 0,7 C
27.02.2013 11:46 1,9 C 90 % 1034,3 hPa 0,0 l/m 0,0 km/h (0 Bft) O-NO 67 0,4 C 1,9 C
27.02.2013 11:51 2,1 C 90 % 1034,0 hPa 0,0 l/m 0,0 km/h (0 Bft) O-NO 67 0,6 C 2,1 C
27.02.2013 11:56 2,2 C 90 % 1033,9 hPa 0,0 l/m 1,8 km/h (1 Bft) NO 45 0,7 C 2,2 C
27.02.2013 12:01 2,4 C 89 % 1034,0 hPa 0,0 l/m 0,0 km/h (0 Bft) N-NO 22 0,8 C 2,4 C
27.02.2013 12:06 2,4 C 89 % 1034,0 hPa 0,0 l/m 4,0 km/h (1 Bft) N-NO 22 0,8 C 2,4 C
27.02.2013 12:11 2,5 C 88 % 1034,0 hPa 0,0 l/m 6,1 km/h (2 Bft) O-NO 67 0,7 C 0,8 C
27.02.2013 12:16 2,5 C 87 % 1034,0 hPa 0,0 l/m 0,0 km/h (0 Bft) NO 45 0,6 C 2,5 C
27.02.2013 12:21 2,5 C 87 % 1033,9 hPa 0,0 l/m 0,0 km/h (0 Bft) N-NO 22 0,6 C 2,5 C
27.02.2013 12:26 2,5 C 86 % 1033,9 hPa 0,0 l/m 5,4 km/h (1 Bft) N-NO 22 0,4 C 1,1 C
27.02.2013 12:31 2,4 C 86 % 1033,8 hPa 0,0 l/m 2,9 km/h (1 Bft) NO 45 0,3 C 2,4 C
27.02.2013 12:36 2,5 C 86 % 1033,8 hPa 0,0 l/m 2,5 km/h (1 Bft) O-NO 67 0,4 C 2,5 C
27.02.2013 12:41 2,6 C 86 % 1033,8 hPa 0,0 l/m 4,0 km/h (1 Bft) N-NO 22 0,5 C 2,6 C
27.02.2013 12:46 2,6 C 86 % 1033,7 hPa 0,0 l/m 0,0 km/h (0 Bft) N-NO 22 0,5 C 2,6 C
27.02.2013 12:51 2,8 C 86 % 1033,7 hPa 0,0 l/m 0,0 km/h (0 Bft) N-NO 22 0,7 C 2,8 C
27.02.2013 12:56 2,9 C 86 % 1033,7 hPa 0,0 l/m 0,0 km/h (0 Bft) N-NO 22 0,8 C 2,9 C
27.02.2013 13:01 3,1 C 85 % 1033,7 hPa 0,0 l/m 2,5 km/h (1 Bft) O-NO 67 0,8 C 3,1 C
27.02.2013 13:06 3,2 C 85 % 1033,6 hPa 0,0 l/m 0,0 km/h (0 Bft) N-NO 22 0,9 C 3,2 C
27.02.2013 13:11 3,4 C 84 % 1033,6 hPa 0,0 l/m 0,0 km/h (0 Bft) N-NO 22 1,0 C 3,4 C
27.02.2013 13:16 3,7 C 84 % 1033,6 hPa 0,0 l/m 4,7 km/h (1 Bft) N-NW 337 1,3 C 2,7 C
27.02.2013 13:21 3,8 C 83 % 1033,6 hPa 0,0 l/m 2,5 km/h (1 Bft) O-NO 67 1,2 C 3,8 C
27.02.2013 13:26 3,8 C 82 % 1033,7 hPa 0,0 l/m 1,4 km/h (1 Bft) NO 45 1,0 C 3,8 C
27.02.2013 13:31 3,8 C 82 % 1033,6 hPa 0,0 l/m 0,0 km/h (0 Bft) NO 45 1,0 C 3,8 C
27.02.2013 13:36 3,8 C 82 % 1033,4 hPa 0,0 l/m 0,0 km/h (0 Bft) NO 45 1,0 C 3,8 C
27.02.2013 13:41 3,9 C 82 % 1033,3 hPa 0,0 l/m 0,0 km/h (0 Bft) NO 45 1,1 C 3,9 C
27.02.2013 13:46 4,1 C 82 % 1033,3 hPa 0,0 l/m 3,2 km/h (1 Bft) W 270 1,3 C 4,1 C
27.02.2013 13:51 4,1 C 82 % 1033,3 hPa 0,0 l/m 1,8 km/h (1 Bft) W-SW 247 1,3 C 4,1 C
27.02.2013 13:56 4,1 C 82 % 1033,2 hPa 0,0 l/m 2,5 km/h (1 Bft) W-SW 247 1,3 C 4,1 C
27.02.2013 14:01 4,2 C 82 % 1033,4 hPa 0,0 l/m 0,0 km/h (0 Bft) W-SW 247 1,4 C 4,2 C
27.02.2013 14:06 4,2 C 82 % 1033,3 hPa 0,0 l/m 1,1 km/h (1 Bft) W-SW 247 1,4 C 4,2 C
27.02.2013 14:11 4,2 C 82 % 1033,3 hPa 0,0 l/m 0,0 km/h (0 Bft) W-SW 247 1,4 C 4,2 C
27.02.2013 14:16 4,1 C 82 % 1033,3 hPa 0,0 l/m 1,4 km/h (1 Bft) W-SW 247 1,3 C 4,1 C
27.02.2013 14:21 4,1 C 82 % 1033,3 hPa 0,0 l/m 0,0 km/h (0 Bft) W-SW 247 1,3 C 4,1 C
27.02.2013 14:26 3,9 C 82 % 1033,4 hPa 0,0 l/m 0,0 km/h (0 Bft) W-SW 247 1,1 C 3,9 C
27.02.2013 14:31 3,8 C 82 % 1033,3 hPa 0,0 l/m 0,0 km/h (0 Bft) W-SW 247 1,0 C 3,8 C
27.02.2013 14:36 3,8 C 82 % 1033,3 hPa 0,0 l/m 0,0 km/h (0 Bft) W-SW 247 1,0 C 3,8 C
27.02.2013 14:41 3,8 C 82 % 1033,2 hPa 0,0 l/m 0,0 km/h (0 Bft) W-SW 247 1,0 C 3,8 C
27.02.2013 14:46 3,8 C 82 % 1033,2 hPa 0,0 l/m 2,2 km/h (1 Bft) S 180 1,0 C 3,8 C
27.02.2013 14:51 3,7 C 82 % 1033,2 hPa 0,0 l/m 0,0 km/h (0 Bft) SO 135 0,9 C 3,7 C
27.02.2013 14:56 3,6 C 82 % 1033,2 hPa 0,0 l/m 0,0 km/h (0 Bft) SO 135 0,8 C 3,6 C
27.02.2013 15:01 3,6 C 83 % 1033,2 hPa 0,0 l/m 0,0 km/h (0 Bft) SO 135 1,0 C 3,6 C
27.02.2013 15:06 3,6 C 82 % 1033,1 hPa 0,0 l/m 0,0 km/h (0 Bft) SO 135 0,8 C 3,6 C
27.02.2013 15:11 3,6 C 82 % 1033,1 hPa 0,0 l/m 0,0 km/h (0 Bft) SO 135 0,8 C 3,6 C
27.02.2013 15:16 3,6 C 82 % 1033,1 hPa 0,0 l/m 0,0 km/h (0 Bft) O-SO 112 0,8 C 3,6 C
27.02.2013 15:21 3,5 C 82 % 1033,1 hPa 0,0 l/m 1,8 km/h (1 Bft) O 90 0,7 C 3,5 C
27.02.2013 15:26 3,4 C 82 % 1033,1 hPa 0,0 l/m 2,2 km/h (1 Bft) O 90 0,6 C 3,4 C
27.02.2013 15:31 3,3 C 82 % 1033,2 hPa 0,0 l/m 0,0 km/h (0 Bft) O 90 0,5 C 3,3 C
27.02.2013 15:36 3,3 C 82 % 1033,1 hPa 0,0 l/m 2,2 km/h (1 Bft) O 90 0,5 C 3,3 C
27.02.2013 15:41 3,3 C 82 % 1033,1 hPa 0,0 l/m 3,2 km/h (1 Bft) O 90 0,5 C 3,3 C
27.02.2013 15:46 3,3 C 82 % 1033,1 hPa 0,0 l/m 1,4 km/h (1 Bft) O 90 0,5 C 3,3 C
27.02.2013 15:51 3,2 C 82 % 1033,1 hPa 0,0 l/m 2,5 km/h (1 Bft) N 360 0,4 C 3,2 C
27.02.2013 15:56 3,3 C 83 % 1033,0 hPa 0,0 l/m 3,2 km/h (1 Bft) N 360 0,7 C 3,3 C
27.02.2013 16:01 3,3 C 83 % 1033,0 hPa 0,0 l/m 2,9 km/h (1 Bft) N 360 0,7 C 3,3 C
27.02.2013 16:06 3,2 C 83 % 1033,1 hPa 0,0 l/m 0,0 km/h (0 Bft) N-NO 22 0,6 C 3,2 C
27.02.2013 16:11 3,2 C 83 % 1033,1 hPa 0,0 l/m 2,2 km/h (1 Bft) N 360 0,6 C 3,2 C
27.02.2013 16:16 3,2 C 83 % 1033,1 hPa 0,0 l/m 0,0 km/h (0 Bft) N 360 0,6 C 3,2 C
27.02.2013 16:21 3,2 C 83 % 1033,1 hPa 0,0 l/m 0,0 km/h (0 Bft) N 360 0,6 C 3,2 C
27.02.2013 16:26 3,2 C 83 % 1033,0 hPa 0,0 l/m 0,0 km/h (0 Bft) NO 45 0,6 C 3,2 C
27.02.2013 16:31 3,2 C 83 % 1033,1 hPa 0,0 l/m 0,0 km/h (0 Bft) NO 45 0,6 C 3,2 C
27.02.2013 16:36 3,2 C 83 % 1033,0 hPa 0,0 l/m 0,0 km/h (0 Bft) NO 45 0,6 C 3,2 C
27.02.2013 16:41 3,2 C 83 % 1033,0 hPa 0,0 l/m 0,0 km/h (0 Bft) NO 45 0,6 C 3,2 C
27.02.2013 16:46 3,1 C 84 % 1032,9 hPa 0,0 l/m 0,0 km/h (0 Bft) NO 45 0,7 C 3,1 C
27.02.2013 16:51 3,1 C 84 % 1033,0 hPa 0,0 l/m 0,0 km/h (0 Bft) NO 45 0,7 C 3,1 C
27.02.2013 16:56 3,1 C 84 % 1033,0 hPa 0,0 l/m 1,1 km/h (1 Bft) NO 45 0,7 C 3,1 C
27.02.2013 17:01 3,1 C 84 % 1033,1 hPa 0,0 l/m 1,8 km/h (1 Bft) NO 45 0,7 C 3,1 C
27.02.2013 17:06 3,0 C 84 % 1032,9 hPa 0,0 l/m 1,8 km/h (1 Bft) NO 45 0,6 C 3,0 C
27.02.2013 17:11 2,9 C 84 % 1033,0 hPa 0,0 l/m 3,6 km/h (1 Bft) N-NO 22 0,5 C 2,9 C
27.02.2013 17:16 2,9 C 84 % 1032,9 hPa 0,0 l/m 2,2 km/h (1 Bft) N-NO 22 0,5 C 2,9 C
27.02.2013 17:21 2,9 C 84 % 1033,0 hPa 0,0 l/m 0,0 km/h (0 Bft) N-NO 22 0,5 C 2,9 C
27.02.2013 17:26 2,9 C 84 % 1033,0 hPa 0,0 l/m 1,1 km/h (1 Bft) N-NO 22 0,5 C 2,9 C
27.02.2013 17:31 2,9 C 84 % 1033,0 hPa 0,0 l/m 0,0 km/h (0 Bft) N-NO 22 0,5 C 2,9 C
27.02.2013 17:36 2,9 C 85 % 1033,0 hPa 0,0 l/m 0,0 km/h (0 Bft) N-NO 22 0,6 C 2,9 C
27.02.2013 17:41 2,9 C 85 % 1033,1 hPa 0,0 l/m 0,0 km/h (0 Bft) N-NO 22 0,6 C 2,9 C
27.02.2013 17:46 2,9 C 85 % 1033,0 hPa 0,0 l/m 0,0 km/h (0 Bft) N-NO 22 0,6 C 2,9 C
27.02.2013 17:51 2,9 C 85 % 1033,0 hPa 0,0 l/m 0,0 km/h (0 Bft) N-NO 22 0,6 C 2,9 C
27.02.2013 17:56 2,9 C 85 % 1032,9 hPa 0,0 l/m 0,0 km/h (0 Bft) N-NO 22 0,6 C 2,9 C
27.02.2013 18:01 2,9 C 85 % 1032,8 hPa 0,0 l/m 0,0 km/h (0 Bft) N-NO 22 0,6 C 2,9 C
27.02.2013 18:06 2,8 C 85 % 1032,8 hPa 0,0 l/m 0,0 km/h (0 Bft) N-NO 22 0,5 C 2,8 C
27.02.2013 18:11 2,8 C 85 % 1032,9 hPa 0,0 l/m 1,1 km/h (1 Bft) N-NO 22 0,5 C 2,8 C
27.02.2013 18:16 2,7 C 85 % 1032,9 hPa 0,0 l/m 0,0 km/h (0 Bft) N-NO 22 0,4 C 2,7 C
27.02.2013 18:21 2,7 C 85 % 1033,1 hPa 0,0 l/m 1,4 km/h (1 Bft) N-NO 22 0,4 C 2,7 C
27.02.2013 18:26 2,6 C 86 % 1033,1 hPa 0,0 l/m 2,2 km/h (1 Bft) N-NO 22 0,5 C 2,6 C
27.02.2013 18:31 2,6 C 86 % 1033,1 hPa 0,0 l/m 0,0 km/h (0 Bft) N-NO 22 0,5 C 2,6 C
27.02.2013 18:36 2,5 C 86 % 1033,1 hPa 0,0 l/m 0,0 km/h (0 Bft) NO 45 0,4 C 2,5 C
27.02.2013 18:41 2,5 C 86 % 1033,0 hPa 0,0 l/m 0,0 km/h (0 Bft) NO 45 0,4 C 2,5 C
27.02.2013 18:46 2,5 C 86 % 1033,0 hPa 0,0 l/m 0,0 km/h (0 Bft) NO 45 0,4 C 2,5 C
27.02.2013 18:51 2,5 C 86 % 1033,0 hPa 0,0 l/m 0,0 km/h (0 Bft) NO 45 0,4 C 2,5 C
27.02.2013 18:56 2,5 C 86 % 1033,0 hPa 0,0 l/m 0,0 km/h (0 Bft) NO 45 0,4 C 2,5 C
27.02.2013 19:01 2,5 C 86 % 1033,0 hPa 0,0 l/m 0,0 km/h (0 Bft) NO 45 0,4 C 2,5 C
27.02.2013 19:06 2,5 C 86 % 1033,0 hPa 0,0 l/m 0,0 km/h (0 Bft) NO 45 0,4 C 2,5 C
27.02.2013 19:11 2,5 C 86 % 1032,8 hPa 0,0 l/m 0,0 km/h (0 Bft) NO 45 0,4 C 2,5 C
27.02.2013 19:16 2,5 C 86 % 1032,9 hPa 0,0 l/m 0,0 km/h (0 Bft) NO 45 0,4 C 2,5 C
27.02.2013 19:21 2,5 C 86 % 1032,8 hPa 0,0 l/m 0,0 km/h (0 Bft) NO 45 0,4 C 2,5 C
27.02.2013 19:26 2,4 C 86 % 1032,9 hPa 0,0 l/m 0,0 km/h (0 Bft) NO 45 0,3 C 2,4 C
27.02.2013 19:31 2,4 C 86 % 1032,9 hPa 0,0 l/m 0,0 km/h (0 Bft) NO 45 0,3 C 2,4 C
27.02.2013 19:36 2,4 C 86 % 1033,0 hPa 0,0 l/m 0,0 km/h (0 Bft) NO 45 0,3 C 2,4 C
27.02.2013 19:41 2,4 C 86 % 1032,9 hPa 0,0 l/m 0,0 km/h (0 Bft) NO 45 0,3 C 2,4 C
27.02.2013 19:46 2,4 C 86 % 1032,8 hPa 0,0 l/m 1,4 km/h (1 Bft) NO 45 0,3 C 2,4 C
27.02.2013 19:51 2,4 C 87 % 1032,9 hPa 0,0 l/m 0,0 km/h (0 Bft) NO 45 0,5 C 2,4 C
27.02.2013 19:56 2,4 C 87 % 1032,8 hPa 0,0 l/m 0,0 km/h (0 Bft) NO 45 0,5 C 2,4 C
27.02.2013 20:01 2,4 C 87 % 1033,0 hPa 0,0 l/m 0,0 km/h (0 Bft) NO 45 0,5 C 2,4 C
27.02.2013 20:06 2,4 C 87 % 1032,7 hPa 0,0 l/m 0,0 km/h (0 Bft) NO 45 0,5 C 2,4 C
27.02.2013 20:11 2,4 C 87 % 1032,7 hPa 0,0 l/m 0,0 km/h (0 Bft) NO 45 0,5 C 2,4 C
27.02.2013 20:16 2,3 C 87 % 1032,8 hPa 0,0 l/m 0,0 km/h (0 Bft) NO 45 0,4 C 2,3 C
27.02.2013 20:21 2,3 C 87 % 1032,8 hPa 0,0 l/m 0,0 km/h (0 Bft) NO 45 0,4 C 2,3 C
27.02.2013 20:26 2,3 C 87 % 1032,8 hPa 0,0 l/m 0,0 km/h (0 Bft) NO 45 0,4 C 2,3 C
27.02.2013 20:31 2,3 C 87 % 1032,7 hPa 0,0 l/m 0,0 km/h (0 Bft) NO 45 0,4 C 2,3 C
27.02.2013 20:36 2,3 C 87 % 1032,7 hPa 0,0 l/m 0,0 km/h (0 Bft) NO 45 0,4 C 2,3 C
27.02.2013 20:41 2,3 C 87 % 1032,6 hPa 0,0 l/m 0,0 km/h (0 Bft) NO 45 0,4 C 2,3 C
27.02.2013 20:46 2,3 C 87 % 1032,7 hPa 0,0 l/m 0,0 km/h (0 Bft) NO 45 0,4 C 2,3 C
27.02.2013 20:51 2,3 C 88 % 1032,7 hPa 0,0 l/m 0,0 km/h (0 Bft) NO 45 0,5 C 2,3 C
27.02.2013 20:56 2,3 C 88 % 1032,6 hPa 0,0 l/m 0,0 km/h (0 Bft) NO 45 0,5 C 2,3 C
27.02.2013 21:01 2,2 C 88 % 1032,7 hPa 0,0 l/m 0,0 km/h (0 Bft) NO 45 0,4 C 2,2 C
27.02.2013 21:06 2,2 C 88 % 1032,7 hPa 0,0 l/m 0,0 km/h (0 Bft) NO 45 0,4 C 2,2 C
27.02.2013 21:11 2,2 C 88 % 1032,7 hPa 0,0 l/m 0,0 km/h (0 Bft) NO 45 0,4 C 2,2 C
27.02.2013 21:16 2,1 C 88 % 1032,7 hPa 0,0 l/m 0,0 km/h (0 Bft) NO 45 0,3 C 2,1 C
27.02.2013 21:21 2,1 C 88 % 1032,6 hPa 0,0 l/m 0,0 km/h (0 Bft) NO 45 0,3 C 2,1 C
27.02.2013 21:26 2,1 C 88 % 1032,5 hPa 0,0 l/m 0,0 km/h (0 Bft) NO 45 0,3 C 2,1 C
27.02.2013 21:31 2,1 C 88 % 1032,5 hPa 0,0 l/m 0,0 km/h (0 Bft) NO 45 0,3 C 2,1 C
27.02.2013 21:36 2,1 C 88 % 1032,5 hPa 0,0 l/m 0,0 km/h (0 Bft) NO 45 0,3 C 2,1 C
27.02.2013 21:41 2,1 C 88 % 1032,5 hPa 0,0 l/m 0,0 km/h (0 Bft) NO 45 0,3 C 2,1 C
27.02.2013 21:46 2,0 C 88 % 1032,7 hPa 0,0 l/m 0,0 km/h (0 Bft) NO 45 0,2 C 2,0 C
27.02.2013 21:51 1,9 C 88 % 1032,8 hPa 0,0 l/m 0,0 km/h (0 Bft) NO 45 0,1 C 1,9 C
27.02.2013 21:56 1,9 C 88 % 1032,8 hPa 0,0 l/m 0,0 km/h (0 Bft) NO 45 0,1 C 1,9 C
27.02.2013 22:01 1,9 C 88 % 1032,7 hPa 0,0 l/m 0,0 km/h (0 Bft) NO 45 0,1 C 1,9 C
27.02.2013 22:06 1,9 C 88 % 1032,8 hPa 0,0 l/m 0,0 km/h (0 Bft) NO 45 0,1 C 1,9 C
27.02.2013 22:11 1,9 C 88 % 1032,7 hPa 0,0 l/m 0,0 km/h (0 Bft) NO 45 0,1 C 1,9 C
27.02.2013 22:16 1,9 C 88 % 1032,6 hPa 0,0 l/m 1,4 km/h (1 Bft) NO 45 0,1 C 1,9 C
27.02.2013 22:21 1,9 C 89 % 1032,8 hPa 0,0 l/m 0,0 km/h (0 Bft) NO 45 0,3 C 1,9 C
27.02.2013 22:26 1,9 C 89 % 1032,8 hPa 0,0 l/m 0,0 km/h (0 Bft) NO 45 0,3 C 1,9 C
27.02.2013 22:31 1,9 C 89 % 1032,7 hPa 0,0 l/m 0,0 km/h (0 Bft) NO 45 0,3 C 1,9 C
27.02.2013 22:36 1,9 C 89 % 1032,8 hPa 0,0 l/m 0,0 km/h (0 Bft) NO 45 0,3 C 1,9 C
27.02.2013 22:41 1,9 C 89 % 1032,9 hPa 0,0 l/m 0,0 km/h (0 Bft) NO 45 0,3 C 1,9 C
27.02.2013 22:46 1,9 C 89 % 1033,0 hPa 0,0 l/m 0,0 km/h (0 Bft) NO 45 0,3 C 1,9 C
27.02.2013 22:51 1,9 C 89 % 1032,7 hPa 0,0 l/m 1,4 km/h (1 Bft) NO 45 0,3 C 1,9 C
27.02.2013 22:56 1,9 C 89 % 1032,8 hPa 0,0 l/m 0,0 km/h (0 Bft) NO 45 0,3 C 1,9 C
27.02.2013 23:01 1,9 C 89 % 1032,7 hPa 0,0 l/m 1,4 km/h (1 Bft) NO 45 0,3 C 1,9 C
27.02.2013 23:06 1,8 C 89 % 1032,8 hPa 0,0 l/m 1,4 km/h (1 Bft) NO 45 0,2 C 1,8 C
27.02.2013 23:11 1,8 C 89 % 1032,7 hPa 0,0 l/m 0,0 km/h (0 Bft) NO 45 0,2 C 1,8 C
27.02.2013 23:16 1,8 C 89 % 1032,7 hPa 0,0 l/m 1,1 km/h (1 Bft) NO 45 0,2 C 1,8 C
27.02.2013 23:21 1,8 C 89 % 1032,6 hPa 0,0 l/m 0,0 km/h (0 Bft) NO 45 0,2 C 1,8 C
27.02.2013 23:26 1,8 C 89 % 1032,7 hPa 0,0 l/m 0,0 km/h (0 Bft) NO 45 0,2 C 1,8 C
27.02.2013 23:31 1,8 C 89 % 1032,6 hPa 0,0 l/m 0,0 km/h (0 Bft) N-NO 22 0,2 C 1,8 C
27.02.2013 23:36 1,8 C 89 % 1032,6 hPa 0,0 l/m 1,8 km/h (1 Bft) W 270 0,2 C 1,8 C
27.02.2013 23:41 1,8 C 90 % 1032,6 hPa 0,0 l/m 1,4 km/h (1 Bft) W 270 0,3 C 1,8 C
27.02.2013 23:46 1,8 C 90 % 1032,7 hPa 0,0 l/m 1,1 km/h (1 Bft) W 270 0,3 C 1,8 C
27.02.2013 23:51 1,8 C 90 % 1032,6 hPa 0,0 l/m 0,0 km/h (0 Bft) W 270 0,3 C 1,8 C
27.02.2013 23:56 1,8 C 90 % 1032,6 hPa 0,0 l/m 0,0 km/h (0 Bft) W 270 0,3 C 1,8 C
_ Min-Zeit 02:26 13:26 21:26 - 00:26 - - 00:01 00:11
Minimum _ 0,8 C 82 % 1032,5 hPa - 0,0 km/h (0 Bft) - - -0,4 C -2,7 C
_ Max-Zeit 14:01 02:16 10:41 04:11 00:11 - - 14:01 14:01
Maximum _ 4,2 C 92 % 1034,7 hPa 0,5 l/m 11,9 km/h
O-NO (2 Bft)
- - 1,4 C 4,2 C
Durchschnitt _ 1,9 C 88 % 1033,6 hPa #0,5 l/m 1,6 km/h (1 Bft) NO - 0,2 C 1,8 C
(c) by David Heller